Weather in Dukmasov

Russia / Republic of Adygea     45°00′22″N   39°54′50″E
temp.,
°C
wind,
m/s
gust,
m/s
humid.,
%
clouds,
%
prec.,
mm/h
press.,
hPa
HPBL,
m
13 may, thu
thu1300:00+10ese36880 0.0 101278
03:00+9ese22900 0.0 101223
06:00+10sw11880 0.0 101315
09:00+17nne11715 0.0 1013284
12:00+22e345854 0.0 1012667
15:00+24e4660100 0.0 1012917
18:00+22ene497999 0.0 1011224
21:00+17e412910 0.0 1011217
14 may, fri
fri1400:00+15e49925 0.0 1010136
03:00+14se12840 0.0 101011
06:00+14ese33712 0.0 101129
09:00+22e34595 0.0 1010207
12:00+27e46535 0.0 1010538
15:00+29e35530 0.0 1009759
18:00+28ne2269100 0.0 100920
21:00+21ene118477 0.0 101011
15 may, sat
sat1500:00+17wsw479371 0.0 1010103
03:00+14w38900 0.0 1012150
06:00+14sw35850 0.0 101495
09:00+20w226750 0.0 1014340
12:00+24nw22615 0.0 1014601
15:00+26n22615 0.0 1013945
18:00+25ne23763 0.0 1012188
21:00+20ne458835 0.0 101174
16 may, sun
sun1600:00+18ene369473 0.0 1010115
03:00+17e119550 0.0 101011
06:00+18e129564 0.0 101077
09:00+23ene3480100 0.0 1008454
12:00+27ene4570100 0.0 1007989
15:00+28ene576599 0.0 10051472
18:00+26ene4876100 0.0 1004352
21:00+21ene411870 0.0 1003210
17 may, mon
mon1700:00+18e48835 0.0 1003130
03:00+16ene34815 0.0 100359
06:00+17n118494 0.0 100440
09:00+22w347165 0.0 1005370
12:00+25nw5665100 0.0 1006868
15:00+25wnw5559100 0.0 1007982
18:00+18sse3590100 1.3 1008129
21:00+16wsw228699 1.4 100923